This demonstration page uses our WeatherBlox Daily Observations layout. Learn more.

39.92423, -83.80882

Hourly Observations for April 6, 2020

Temp ( °F °C ) Dew Point ( °F °C ) Humidity (%) Winds ( mph kmh ) Pressure ( in mb ) Visibility ( mi km ) Precip ( " mm )
12:56 am 00:56 Clear 39 3.9 38 3.3 96 96 ENE 5 7 30.15 1021 9 14.48406 0 0
1:56 am 01:56 Clear 39 3.9 38 3.3 96 96 Calm 30.16 1021 9 14.48406 0 0
2:56 am 02:56 Mostly Cloudy 37 2.8 37 2.8 100 100 NE 5 7 30.16 1021 9 14.48406 0 0
3:56 am 03:56 Clear 35 1.7 35 1.7 100 100 NNE 6 9 30.14 1021 9 14.48406 0 0
4:56 am 04:56 Clear 34 1.1 34 1.1 100 100 E 5 7 30.14 1021 9 14.48406 0 0
5:56 am 05:56 Clear 33 0.6 33 0.6 100 100 ENE 6 9 30.14 1021 10 16.0934 0 0
6:56 am 06:56 Clear 34 1.1 34 1.1 100 100 Calm 30.16 1021 10 16.0934 0 0
7:56 am 07:56 Sunny 34 1.1 34 1.1 100 100 NE 6 9 30.17 1022 8 12.87472 0 0
8:56 am 08:56 Sunny 41 5 38 3.3 89 89 E 7 11 30.19 1022 10 16.0934 0 0
9:56 am 09:56 Sunny 45 7.2 40 4.4 83 83 ESE 7 11 30.18 1022 10 16.0934 0 0
10:56 am 10:56 Sunny 49 9.4 42 5.6 77 77 ESE 6 9 30.17 1022 10 16.0934 0 0
11:56 am 11:56 Sunny 53 11.7 43 6.1 69 69 SE 6 9 30.16 1021 10 16.0934 0 0
12:56 pm 12:56 Sunny 56 13.3 43 6.1 62 62 SSE 9 15 30.13 1020 10 16.0934 0 0
1:56 pm 13:56 Sunny 59 15 46 7.8 62 62 VRB 3 6 30.11 1020 10 16.0934 0 0
2:56 pm 14:56 Sunny 62 16.7 45 7.2 54 54 VRB 3 6 30.08 1019 10 16.0934 0 0
3:56 pm 15:56 Sunny 63 17.2 45 7.2 52 52 WSW 8 13 30.06 1018 10 16.0934 0 0
4:56 pm 16:56 Sunny 65 18.3 47 8.3 52 52 WSW 8 13 30.02 1017 10 16.0934 0 0
5:56 pm 17:56 Mostly Sunny 65 18.3 50 10 59 59 SW 13 20 30.02 1017 10 16.0934 0 0
6:56 pm 18:56 Cloudy 63 17.2 51 10.6 65 65 SW 12 19 30.03 1017 10 16.0934 0 0
7:56 pm 19:56 Mostly Cloudy 61 16.1 52 11.1 72 72 WSW 7 11 30.03 1017 10 16.0934 0 0
8:56 pm 20:56 Partly Cloudy 59 15 52 11.1 78 78 SW 5 7 30.02 1017 10 16.0934 0 0
9:56 pm 21:56 Cloudy 58 14.4 51 10.6 78 78 Calm 30.02 1017 10 16.0934 0 0
10:56 pm 22:56 Cloudy 56 13.3 51 10.6 84 84 SW 3 6 30.02 1017 10 16.0934 0 0
11:56 pm 23:56 Mostly Cloudy 52 11.1 50 10 93 93 E 3 6 30.01 1016 10 16.0934 0 0

Powered by AerisWeather